Погода в Кременкуле

Россия / Челябинская область     55°11′11″N   61°09′08″E
темп.,
°C
ветер,
м/с
пор.,
м/с
влажн.,
%
обл.,
%
осадки,
мм/ч
давл.,
гПа
погр.,
м
17 сентября, пт
пт1723:00+5зюз497883 0.0 1003813
02:00+5з61176100 0.0 10021234
05:00+4з61293100 0.1 10021000
08:00+5зсз61186100 0.2 1002895
11:00+7зсз61071100 0.2 1003916
14:00+8сз7969100 0.1 10051095
17:00+8зсз6973100 0.3 10061238
20:00+7зсз598170 0.2 1008867
18 сентября, сб
сб1823:00+6зсз5885100 0.5 1009845
02:00+6з4882100 0.4 1009782
05:00+5з5984100 0.4 1009757
08:00+5зсз498385 0.1 1009806
11:00+5з4690100 0.4 1009760
14:00+6з587163 0.7 10091118
17:00+6зсз7107376 1.2 10101186
20:00+4зсз511785 0.1 1011883
19 сентября, вс
вс1923:00+2зсз6138014 0.1 1011813
02:00+4зсз71372100 0.0 10101061
05:00+3зсз71377100 0.0 10101112
08:00+3зсз71470100 0.0 10111311
11:00+5сз91358100 0.1 10121416
14:00+6сз91360100 0.0 10141347
17:00+6сз81360100 0.0 10161316
20:00+4сз7126433 0.0 10181003
20 сентября, пн
пн2023:00+2сз611705 0.0 1020770
02:00+2сз596859 0.0 1021749
05:00+3сз586174 0.0 1023926
08:00+2сз59646 0.0 1025717
11:00+5ссз4551100 0.0 10251149
14:00+8ссз344481 0.0 10261460
17:00+8с4447100 0.0 10271547
20:00+5св4661100 0.0 1028606
21 сентября, вт
вт2123:00+5с256099 0.0 1030502
02:00+3ссз227073 0.0 103199
05:00+2сз227311 0.0 103175
08:00+3сз12695 0.0 1032107
11:00+7сз01475 0.0 1031955
14:00+10зюз12385 0.0 10301191
17:00+11зсз12370 0.0 10281248
20:00+8вюв11461 0.0 102810